STARLINK-34592

Last updated on Sat Jul 19 2025 00:02:08 GMT+0000 (Coordinated Universal Time)

1 64746U 25144Y 25199.58335648 -.01525732 00000+0 -12982-1 0 9990 2 64746 53.1584 192.1425 0001247 59.9907 66.6490 15.71640174 3811
UTC large
Height (km)
Speed (km/s)
/
Latitude / Longitude
Inclination (degrees)
Orbital Period (minutes)
Azimuth
Elevation
Range (km)
Doppler Factor

Next 0 passes for location: London (51.5072 / 0.1276)

Sorry there are no passes over London.